Tracking 27423 objects as of 8-Jun-2023
HD Live streaming from Space Station
objects crossing your sky now

STARLINK-5222

Track STARLINK-5222 now!
10-day predictions
STARLINK-5222 is classified as:


NORAD ID: 54068
Int'l Code: 2022-136T
Perigee: 546.2 km
Apogee: 547.6 km
Inclination: 53.2 °
Period: 95.4 minutes
Semi major axis: 6917 km
RCS: Unknown
Launch date: October 20, 2022
Source: United States (US)
Launch site: AIR FORCE EASTERN TEST RANGE (AFETR)
Your satellite tracking list
Your tracking list is empty




NASA's NSSDC Master Catalog

Two Line Element Set (TLE):
1 54068U 22136T   23159.34447718 -.00000539  00000-0 -15765-4 0  9992
2 54068  53.2147 177.1011 0001019  74.9574 285.1530 15.08837026 35071
Source of the keplerian elements: AFSPC